EW4266 Weather Reports


time (UTC)temp
F
wind
direction
speed
knots
gust
knots
rain 1hr
in
rain 24hr
in
rain mn
in
humidity
%
barometer
mb
20260504215934 68 196 7.0 8.7 0.00 0.00 0.00 39 1003.5
20260504215827 68 165 6.1 13.0 0.00 0.00 0.00 40 1003.4
20260504215708 68 176 6.1 13.0 0.00 0.00 0.00 39 1003.4
20260504215629 68 179 6.1 13.0 0.00 0.00 0.00 39 1003.4
20260504215431 68 153 6.1 13.0 0.00 0.00 0.00 39 1003.4
20260504215355 68 177 7.0 13.0 0.00 0.00 0.00 39 1003.4
20260504215238 68 173 7.0 13.0 0.00 0.00 0.00 39 1003.4
20260504215148 68 136 7.8 13.0 0.00 0.00 0.00 39 1003.4
20260504215026 68 157 7.0 13.0 0.00 0.00 0.00 39 1003.3
20260504214930 68 141 5.2 10.4 0.00 0.00 0.00 39 1003.4
20260504214852 68 188 7.0 10.4 0.00 0.00 0.00 39 1003.4
20260504214814 68 161 7.0 10.4 0.00 0.00 0.00 39 1003.4
20260504214719 68 185 7.0 10.4 0.00 0.00 0.00 39 1003.4
20260504214640 68 221 7.0 11.3 0.00 0.00 0.00 39 1003.4
20260504214512 68 245 7.8 13.0 0.00 0.00 0.00 39 1003.4
20260504214427 68 200 7.0 13.9 0.00 0.00 0.00 39 1003.4
20260504214225 69 134 7.0 13.0 0.00 0.00 0.00 39 1003.4
20260504214037 69 185 4.3 13.0 0.00 0.00 0.00 40 1003.4
20260504213931 69 209 5.2 13.0 0.00 0.00 0.00 39 1003.4
20260504213859 69 238 6.1 13.0 0.00 0.00 0.00 39 1003.4
20260504213724 69 208 7.0 13.0 0.00 0.00 0.00 39 1003.3
20260504213640 69 166 6.1 13.9 0.00 0.00 0.00 38 1003.3
20260504213509 69 152 6.1 15.6 0.00 0.00 0.00 38 1003.6
20260504213432 69 195 7.0 15.6 0.00 0.00 0.00 38 1003.4
20260504213234 69 172 7.8 15.6 0.00 0.00 0.00 38 1003.2
20260504213156 69 203 7.8 15.6 0.00 0.00 0.00 38 1003.2
20260504213100 69 163 8.7 15.6 0.00 0.00 0.00 37 1003.3
20260504212942 69 188 7.8 15.6 0.00 0.00 0.00 38 1003.3
20260504212830 69 160 7.8 15.6 0.00 0.00 0.00 37 1003.3
20260504212752 69 153 7.0 15.6 0.00 0.00 0.00 37 1003.3
20260504212708 70 114 6.1 13.0 0.00 0.00 0.00 38 1003.3
20260504212516 70 195 7.8 13.0 0.00 0.00 0.00 38 1003.3
20260504212438 70 168 7.0 13.0 0.00 0.00 0.00 38 1003.2
20260504212301 70 172 7.8 13.0 0.00 0.00 0.00 39 1003.2
20260504212222 70 169 7.8 13.0 0.00 0.00 0.00 39 1003.4
20260504212034 70 142 6.1 19.1 0.00 0.00 0.00 39 1003.3
20260504211927 70 222 4.3 19.1 0.00 0.00 0.00 40 1003.3
20260504211851 69 172 4.3 19.1 0.00 0.00 0.00 40 1003.3
20260504211738 69 187 4.3 19.1 0.00 0.00 0.00 39 1003.2
20260504211700 69 169 4.3 19.1 0.00 0.00 0.00 40 1003.2
20260504211615 69 199 4.3 19.1 0.00 0.00 0.00 39 1003.2
20260504211427 69 224 7.8 19.1 0.00 0.00 0.00 40 1003.2
20260504211344 69 211 11.3 19.1 0.00 0.00 0.00 39 1003.2
20260504211213 69 136 7.8 19.1 0.00 0.00 0.00 39 1003.3
20260504211135 69 183 6.1 12.2 0.00 0.00 0.00 39 1003.2
20260504210938 69 157 6.1 13.9 0.00 0.00 0.00 39 1003.0
20260504210841 69 167 7.0 13.9 0.00 0.00 0.00 39 1003.2
20260504210725 69 161 6.1 13.9 0.00 0.00 0.00 39 1003.2
20260504210650 69 213 4.3 13.9 0.00 0.00 0.00 39 1003.2
20260504210610 69 200 5.2 13.9 0.00 0.00 0.00 40 1003.2
20260504210515 69 186 4.3 13.9 0.00 0.00 0.00 39 1003.2
20260504210437 69 214 6.1 13.9 0.00 0.00 0.00 39 1003.2
20260504210231 69 174 6.1 13.0 0.00 0.00 0.00 39 1003.3
20260504210132 69 188 5.2 13.0 0.00 0.00 0.00 39 1003.2
20260504210036 69 238 5.2 13.0 0.00 0.00 0.00 40 1003.2
20260504205939 69 198 7.0 13.0 0.00 0.00 0.00 40 1003.3
20260504205629 69 263 7.0 13.0 0.00 0.00 0.00 39 1003.4
20260504205535 69 193 7.0 11.3 0.00 0.00 0.00 40 1003.3
20260504205448 69 232 5.2 11.3 0.00 0.00 0.00 40 1003.2
20260504205349 69 142 5.2 11.3 0.00 0.00 0.00 41 1003.2
20260504205310 69 205 7.0 11.3 0.00 0.00 0.00 41 1003.2
20260504205112 69 255 5.2 12.2 0.00 0.00 0.00 40 1003.3
20260504205035 69 174 5.2 11.3 0.00 0.00 0.00 43 1003.2
20260504204905 69 192 6.1 13.0 0.00 0.00 0.00 40 1003.2
20260504204827 69 172 6.1 13.0 0.00 0.00 0.00 40 1003.2
20260504204629 69 171 6.1 13.0 0.00 0.00 0.00 41 1003.2
20260504204550 69 187 5.2 13.0 0.00 0.00 0.00 41 1003.2
20260504204438 69 184 5.2 13.0 0.00 0.00 0.00 41 1003.2
20260504204402 69 177 7.0 13.0 0.00 0.00 0.00 41 1003.2
20260504204223 69 169 8.7 13.0 0.00 0.00 0.00 41 1003.2
20260504204147 69 140 9.6 13.0 0.00 0.00 0.00 40 1003.2
20260504204023 69 126 7.0 13.0 0.00 0.00 0.00 41 1003.2
20260504203927 69 173 6.1 13.0 0.00 0.00 0.00 43 1003.1
20260504203851 69 163 6.1 13.0 0.00 0.00 0.00 42 1003.1
20260504203812 69 153 7.8 13.0 0.00 0.00 0.00 42 1003.1
20260504203716 69 151 8.7 13.0 0.00 0.00 0.00 41 1003.1
20260504203638 69 153 7.8 11.3 0.00 0.00 0.00 41 1003.2
20260504203513 68 164 4.3 10.4 0.00 0.00 0.00 43 1003.1
20260504203415 68 155 3.5 10.4 0.00 0.00 0.00 44 1003.2
20260504203238 68 177 5.2 10.4 0.00 0.00 0.00 43 1003.3
20260504203201 68 183 7.0 10.4 0.00 0.00 0.00 45 1003.3
20260504202944 68 171 7.0 10.4 0.00 0.00 0.00 44 1003.3
20260504202907 68 178 7.0 10.4 0.00 0.00 0.00 43 1003.3
20260504202812 67 138 7.0 10.4 0.00 0.00 0.00 44 1003.3
20260504202735 67 136 7.0 10.4 0.00 0.00 0.00 44 1003.3
20260504202604 67 163 7.0 10.4 0.00 0.00 0.00 45 1003.4
20260504202516 67 192 6.1 10.4 0.00 0.00 0.00 45 1003.4
20260504202346 67 190 5.2 10.4 0.00 0.00 0.00 45 1003.4
20260504202252 67 148 4.3 13.0 0.00 0.00 0.00 45 1003.4
20260504202153 67 164 5.2 13.0 0.00 0.00 0.00 44 1003.4
20260504202035 67 155 6.1 13.0 0.00 0.00 0.00 43 1003.5
20260504201959 67 175 7.0 13.0 0.00 0.00 0.00 43 1003.5
20260504201915 67 191 7.0 13.0 0.00 0.00 0.00 43 1003.5
20260504201725 67 173 4.3 13.0 0.00 0.00 0.00 44 1003.5
20260504201638 67 142 4.3 13.0 0.00 0.00 0.00 43 1003.6
20260504201510 67 144 7.8 13.0 0.00 0.00 0.00 43 1003.5
20260504201432 67 173 7.8 12.2 0.00 0.00 0.00 44 1003.6
20260504201233 67 183 5.2 12.2 0.00 0.00 0.00 44 1003.6
20260504201159 67 165 4.3 12.2 0.00 0.00 0.00 44 1003.6
20260504201041 67 206 6.1 12.2 0.00 0.00 0.00 43 1003.7
20260504201004 67 155 7.0 12.2 0.00 0.00 0.00 43 1003.7
20260504200918 67 243 7.0 12.2 0.00 0.00 0.00 43 1003.8
20260504200729 67 192 6.1 13.9 0.00 0.00 0.00 43 1003.7
20260504200623 67 229 5.2 13.9 0.00 0.00 0.00 44 1003.8
20260504200545 67 227 5.2 13.9 0.00 0.00 0.00 44 1003.8
20260504200500 67 234 6.1 13.9 0.00 0.00 0.00 43 1003.7
20260504200422 67 148 6.1 13.9 0.00 0.00 0.00 43 1003.7
20260504200237 67 157 5.2 13.9 0.00 0.00 0.00 44 1003.7
20260504200131 67 160 6.1 13.0 0.00 0.00 0.00 43 1003.7
20260504200053 68 171 7.0 13.0 0.00 0.00 0.00 43 1003.7
20260504195959 68 140 7.8 13.0 0.00 0.00 0.00 42 1003.8
20260504195838 68 182 6.1 13.0 0.00 0.00 0.00 43 1003.9
20260504195754 68 216 5.2 13.0 0.00 0.00 0.00 43 1003.9
20260504195723 68 155 6.1 13.0 0.00 0.00 0.00 43 1003.9
20260504195625 68 174 7.0 13.0 0.00 0.00 0.00 43 1003.8
20260504195428 68 131 9.6 13.0 0.00 0.00 0.00 42 1003.9
20260504195352 68 190 9.6 13.9 0.00 0.00 0.00 42 1003.9
20260504195239 68 139 8.7 13.9 0.00 0.00 0.00 44 1003.9
20260504195201 68 173 8.7 13.9 0.00 0.00 0.00 44 1003.9
20260504195115 68 205 8.7 13.9 0.00 0.00 0.00 43 1003.9
20260504194947 68 198 7.0 13.0 0.00 0.00 0.00 44 1003.9
20260504194728 67 165 5.2 20.9 0.00 0.00 0.00 44 1003.7
20260504194630 67 95 6.1 20.9 0.00 0.00 0.00 44 1003.7
20260504194533 67 215 9.6 20.9 0.00 0.00 0.00 43 1003.9
20260504194455 67 163 9.6 20.9 0.00 0.00 0.00 42 1003.9
20260504194418 67 120 8.7 20.9 0.00 0.00 0.00 42 1003.8
20260504194224 67 142 7.8 20.9 0.00 0.00 0.00 43 1003.9
20260504194127 67 146 10.4 20.9 0.00 0.00 0.00 44 1004.0
20260504194032 67 219 11.3 20.9 0.00 0.00 0.00 43 1003.9
20260504193954 67 145 9.6 19.1 0.00 0.00 0.00 44 1003.9
20260504193734 67 169 10.4 19.1 0.00 0.00 0.00 44 1004.0
20260504193637 67 159 7.8 19.1 0.00 0.00 0.00 44 1003.9
20260504193541 67 150 11.3 19.1 0.00 0.00 0.00 43 1003.9
20260504193441 67 167 11.3 20.0 0.00 0.00 0.00 42 1004.0
20260504193312 67 190 7.8 18.2 0.00 0.00 0.00 45 1004.0
20260504193228 67 171 7.0 18.2 0.00 0.00 0.00 44 1004.0
20260504193041 67 152 7.0 18.2 0.00 0.00 0.00 44 1004.0
20260504193004 67 150 6.1 18.2 0.00 0.00 0.00 44 1004.0
20260504192918 67 188 7.8 18.2 0.00 0.00 0.00 44 1004.1
20260504192729 67 133 8.7 18.2 0.00 0.00 0.00 44 1004.1
20260504192644 66 183 7.0 18.2 0.00 0.00 0.00 44 1004.1
20260504192515 66 174 7.8 13.9 0.00 0.00 0.00 44 1004.1
20260504192415 66 123 8.7 13.9 0.00 0.00 0.00 44 1004.1
20260504192239 66 184 7.8 13.9 0.00 0.00 0.00 44 1004.1
20260504192142 66 200 7.8 13.9 0.00 0.00 0.00 44 1004.1
20260504192028 67 156 8.7 13.9 0.00 0.00 0.00 43 1004.2
20260504191950 67 161 9.6 13.9 0.00 0.00 0.00 44 1004.2
20260504191904 67 108 9.6 13.9 0.00 0.00 0.00 43 1004.2
20260504191744 67 235 7.8 13.9 0.00 0.00 0.00 43 1004.2
20260504191647 67 146 7.0 13.9 0.00 0.00 0.00 44 1004.2
20260504191523 67 246 9.6 13.9 0.00 0.00 0.00 45 1004.1
20260504191427 67 192 10.4 14.8 0.00 0.00 0.00 43 1004.2
20260504191328 67 175 7.0 12.2 0.00 0.00 0.00 45 1004.2
20260504191253 67 163 5.2 12.2 0.00 0.00 0.00 45 1004.2
20260504191121 67 271 7.0 12.2 0.00 0.00 0.00 45 1004.1
20260504191024 67 219 7.0 12.2 0.00 0.00 0.00 45 1004.2
20260504190948 67 175 7.8 12.2 0.00 0.00 0.00 45 1004.2
20260504190831 66 202 6.1 12.2 0.00 0.00 0.00 44 1004.1
20260504190744 66 171 6.1 12.2 0.00 0.00 0.00 44 1004.1
20260504190640 66 126 8.7 12.2 0.00 0.00 0.00 45 1004.1
20260504190522 66 184 8.7 13.9 0.00 0.00 0.00 43 1004.2
20260504190445 67 172 8.7 14.8 0.00 0.00 0.00 44 1004.2
20260504190411 67 124 7.8 13.9 0.00 0.00 0.00 43 1004.2
20260504190232 67 194 7.0 10.4 0.00 0.00 0.00 45 1004.3
20260504190154 67 155 6.1 10.4 0.00 0.00 0.00 45 1004.3
20260504190018 66 212 6.1 13.9 0.00 0.00 0.00 46 1004.3
20260504185940 66 176 7.0 13.9 0.00 0.00 0.00 45 1004.3
20260504185809 66 218 7.8 13.9 0.00 0.00 0.00 45 1004.3
20260504185720 66 178 8.7 13.9 0.00 0.00 0.00 44 1004.3
20260504185524 66 146 7.0 13.9 0.00 0.00 0.00 45 1004.5
20260504185438 66 182 7.8 13.9 0.00 0.00 0.00 45 1004.5
20260504185346 66 156 7.8 13.9 0.00 0.00 0.00 46 1004.5
20260504185250 65 146 6.1 13.9 0.00 0.00 0.00 44 1004.5
20260504185149 65 102 4.3 14.8 0.00 0.00 0.00 44 1004.5
20260504185010 66 207 7.8 14.8 0.00 0.00 0.00 44 1004.6
20260504184926 66 163 8.7 14.8 0.00 0.00 0.00 44 1004.6
20260504184704 65 159 5.2 13.0 0.00 0.00 0.00 45 1004.6
20260504184625 65 230 4.3 13.0 0.00 0.00 0.00 45 1004.6
20260504184435 65 184 7.0 13.0 0.00 0.00 0.00 44 1004.7
20260504184329 65 219 7.8 13.0 0.00 0.00 0.00 45 1004.7
20260504184138 65 131 7.8 13.0 0.00 0.00 0.00 47 1004.8
20260504184031 65 190 6.1 13.0 0.00 0.00 0.00 45 1004.8
20260504183959 65 213 7.0 20.0 0.00 0.00 0.00 47 1004.8
20260504183824 65 157 7.0 20.0 0.00 0.00 0.00 46 1004.8
20260504183738 65 180 6.1 20.0 0.00 0.00 0.00 46 1004.9
20260504183610 64 209 4.3 20.0 0.00 0.00 0.00 46 1004.8
20260504183532 64 192 6.1 20.0 0.00 0.00 0.00 45 1004.8
20260504183335 64 198 7.0 20.0 0.00 0.00 0.00 45 1004.9
20260504183258 64 160 8.7 20.0 0.00 0.00 0.00 46 1004.9
20260504183136 64 163 12.2 20.0 0.00 0.00 0.00 44 1004.9
20260504183058 64 175 10.4 20.0 0.00 0.00 0.00 44 1004.9
20260504183015 64 139 7.8 16.5 0.00 0.00 0.00 46 1005.0
20260504182845 64 144 7.0 16.5 0.00 0.00 0.00 46 1005.0
20260504182748 64 220 7.8 16.5 0.00 0.00 0.00 47 1005.0
20260504182710 64 181 7.8 16.5 0.00 0.00 0.00 46 1005.0
20260504182613 64 205 8.7 16.5 0.00 0.00 0.00 45 1004.9
20260504182537 64 171 7.8 16.5 0.00 0.00 0.00 45 1005.0
20260504182409 64 164 8.7 16.5 0.00 0.00 0.00 46 1005.0
20260504182322 64 152 7.0 16.5 0.00 0.00 0.00 46 1005.1
20260504182152 64 137 5.2 12.2 0.00 0.00 0.00 47 1005.1
20260504182054 64 126 6.1 12.2 0.00 0.00 0.00 46 1005.1
20260504181939 64 144 7.8 12.2 0.00 0.00 0.00 45 1005.3
20260504181846 64 128 6.1 12.2 0.00 0.00 0.00 46 1005.2
20260504181725 64 170 6.1 10.4 0.00 0.00 0.00 46 1005.2
20260504181647 64 235 7.0 10.4 0.00 0.00 0.00 46 1005.2
20260504181610 64 217 7.0 10.4 0.00 0.00 0.00 46 1005.2
20260504181513 64 192 7.8 12.2 0.00 0.00 0.00 46 1005.1
20260504181436 64 217 7.8 12.2 0.00 0.00 0.00 46 1005.1
20260504181305 64 161 6.1 12.2 0.00 0.00 0.00 46 1005.1
20260504181218 64 157 6.1 12.2 0.00 0.00 0.00 47 1005.1
20260504181030 63 163 7.0 12.2 0.00 0.00 0.00 46 1005.2
20260504180943 63 178 7.8 12.2 0.00 0.00 0.00 46 1005.2
20260504180815 63 204 7.0 12.2 0.00 0.00 0.00 47 1005.3
20260504180736 63 173 7.0 12.2 0.00 0.00 0.00 48 1005.3
20260504180521 63 165 6.1 11.3 0.00 0.00 0.00 47 1005.3
20260504180445 63 169 5.2 11.3 0.00 0.00 0.00 47 1005.3
20260504180327 62 200 6.1 11.3 0.00 0.00 0.00 47 1005.4
20260504180249 62 246 6.1 11.3 0.00 0.00 0.00 47 1005.4
20260504180211 62 227 5.2 11.3 0.00 0.00 0.00 48 1005.5
20260504180113 62 205 3.5 11.3 0.00 0.00 0.00 47 1005.4
20260504180036 62 208 3.5 11.3 0.00 0.00 0.00 48 1005.4
20260504175906 62 161 5.2 11.3 0.00 0.00 0.00 47 1005.5
20260504175740 62 174 5.2 12.2 0.00 0.00 0.00 47 1005.5
20260504175628 62 242 4.3 8.7 0.00 0.00 0.00 48 1005.5
20260504175550 62 204 4.3 8.7 0.00 0.00 0.00 48 1005.5
20260504175419 62 184 5.2 8.7 0.00 0.00 0.00 47 1005.6
20260504175336 62 205 4.3 9.6 0.00 0.00 0.00 47 1005.5
20260504175206 62 157 5.2 12.2 0.00 0.00 0.00 48 1005.5
20260504175127 62 265 5.2 12.2 0.00 0.00 0.00 48 1005.5
20260504174929 62 167 4.3 12.2 0.00 0.00 0.00 48 1005.6
20260504174853 62 166 4.3 12.2 0.00 0.00 0.00 47 1005.6
20260504174735 62 156 3.5 12.2 0.00 0.00 0.00 48 1005.6
20260504174658 62 155 4.3 12.2 0.00 0.00 0.00 48 1005.6
20260504174620 62 185 7.0 12.2 0.00 0.00 0.00 48 1005.6
20260504174506 62 215 7.8 12.2 0.00 0.00 0.00 48 1005.6
20260504174430 62 137 7.8 11.3 0.00 0.00 0.00 48 1005.7
20260504174223 61 158 4.3 12.2 0.00 0.00 0.00 48 1005.7
20260504174143 61 152 4.3 12.2 0.00 0.00 0.00 48 1005.7
20260504174045 61 132 4.3 12.2 0.00 0.00 0.00 48 1005.7
20260504173939 61 157 5.2 12.2 0.00 0.00 0.00 48 1005.7
20260504173902 61 224 5.2 12.2 0.00 0.00 0.00 48 1005.8
20260504173744 61 249 7.0 12.2 0.00 0.00 0.00 47 1005.8
20260504173646 61 197 7.0 12.2 0.00 0.00 0.00 47 1005.8
20260504173608 61 250 7.0 12.2 0.00 0.00 0.00 47 1005.8
20260504173428 61 113 5.2 12.2 0.00 0.00 0.00 48 1005.9
20260504173328 61 91 7.8 12.2 0.00 0.00 0.00 47 1005.8
20260504173230 61 190 9.6 12.2 0.00 0.00 0.00 48 1005.8
20260504173152 61 175 8.7 12.2 0.00 0.00 0.00 48 1005.8
20260504173115 61 194 7.8 12.2 0.00 0.00 0.00 47 1005.9
20260504172939 61 179 4.3 12.2 0.00 0.00 0.00 48 1005.8
20260504172840 61 123 3.5 12.2 0.00 0.00 0.00 48 1005.8
20260504172724 61 184 2.6 14.8 0.00 0.00 0.00 48 1005.8
20260504172647 60 242 4.3 14.8 0.00 0.00 0.00 48 1005.8
20260504172529 60 144 6.1 14.8 0.00 0.00 0.00 47 1005.8
20260504172455 60 182 7.8 14.8 0.00 0.00 0.00 47 1005.8
20260504172416 60 152 7.8 14.8 0.00 0.00 0.00 47 1005.9
20260504172259 60 211 4.3 14.8 0.00 0.00 0.00 47 1005.9
20260504172139 60 168 4.3 14.8 0.00 0.00 0.00 47 1005.9
20260504172024 60 205 7.8 14.8 0.00 0.00 0.00 47 1005.9
20260504171945 60 169 9.6 14.8 0.00 0.00 0.00 48 1005.8
20260504171744 60 132 7.0 11.3 0.00 0.00 0.00 47 1005.9
20260504171638 60 184 5.2 12.2 0.00 0.00 0.00 47 1005.9
20260504171541 60 183 3.5 12.2 0.00 0.00 0.00 48 1005.9
20260504171444 60 234 4.3 17.4 0.00 0.00 0.00 47 1005.9
20260504171349 60 215 4.3 17.4 0.00 0.00 0.00 46 1005.9
20260504171311 60 196 4.3 17.4 0.00 0.00 0.00 46 1005.9
20260504171214 60 183 5.2 17.4 0.00 0.00 0.00 47 1006.0
20260504171136 59 161 4.3 17.4 0.00 0.00 0.00 46 1005.8
20260504171007 59 172 6.1 17.4 0.00 0.00 0.00 47 1005.9
20260504170921 59 244 7.8 17.4 0.00 0.00 0.00 47 1005.9
20260504170732 59 178 9.6 17.4 0.00 0.00 0.00 47 1006.0
20260504170626 59 157 7.8 16.5 0.00 0.00 0.00 46 1005.9
20260504170550 59 173 6.1 11.3 0.00 0.00 0.00 46 1005.9
20260504170504 59 133 6.1 11.3 0.00 0.00 0.00 46 1005.9
20260504170424 59 163 6.1 11.3 0.00 0.00 0.00 46 1006.0
20260504170236 59 146 5.2 13.0 0.00 0.00 0.00 46 1006.0
20260504170131 59 179 7.0 13.0 0.00 0.00 0.00 46 1006.1
20260504160445 52 153 4.3 7.0 0.00 0.00 0.00 37 1006.9
20260504160408 52 184 4.3 7.0 0.00 0.00 0.00 36 1006.9
20260504160314 52 149 5.2 7.0 0.00 0.00 0.00 37 1007.0
20260504160236 52 167 4.3 7.0 0.00 0.00 0.00 36 1007.0
20260504160105 52 190 2.6 6.1 0.00 0.00 0.00 34 1007.0
20260504151043 51 155 2.6 5.2 0.00 0.00 0.00 38 1007.3
20260504150946 51 211 2.6 5.2 0.00 0.00 0.00 40 1007.3
20260504150846 51 219 3.5 5.2 0.00 0.00 0.00 40 1007.3
20260504150809 51 229 2.6 5.2 0.00 0.00 0.00 39 1007.2
20260504150714 51 217 1.7 5.2 0.00 0.00 0.00 40 1007.2
20260504150614 51 193 1.7 2.6 0.00 0.00 0.00 40 1007.1
20260504150519 51 193 1.7 2.6 0.00 0.00 0.00 40 1007.2
20260504150323 51 205 0.9 2.6 0.00 0.00 0.00 40 1007.2
20260504150225 51 181 0.0 2.6 0.00 0.00 0.00 40 1007.3
20260504150127 51 203 0.9 2.6 0.00 0.00 0.00 40 1007.2
20260504141333 51 194 6.1 13.0 0.00 0.00 0.00 44 1006.7
20260504141136 51 173 7.0 13.0 0.00 0.00 0.00 44 1006.7
20260504141040 51 178 6.1 13.0 0.00 0.00 0.00 44 1006.6
20260504140922 51 175 7.8 13.0 0.00 0.00 0.00 44 1006.6
20260504140849 51 204 7.8 13.0 0.00 0.00 0.00 44 1006.6
20260504140723 51 176 6.1 12.2 0.00 0.00 0.00 43 1006.7
20260504140647 51 229 5.2 12.2 0.00 0.00 0.00 43 1006.7
20260504140530 51 216 4.3 12.2 0.00 0.00 0.00 43 1006.7
20260504140412 51 164 4.3 12.2 0.00 0.00 0.00 43 1006.7
20260504140346 51 167 4.3 12.2 0.00 0.00 0.00 44 1006.7
20260504140240 51 145 5.2 12.2 0.00 0.00 0.00 44 1006.7
20260504140204 51 153 6.1 12.2 0.00 0.00 0.00 44 1006.7
20260504140111 51 205 7.8 12.2 0.00 0.00 0.00 44 1006.7
20260504130821 50 174 7.0 16.5 0.00 0.00 0.00 40 1006.5
20260504130628 50 165 6.1 16.5 0.00 0.00 0.00 40 1006.4
20260504130550 50 234 7.8 16.5 0.00 0.00 0.00 40 1006.4
20260504130456 50 179 8.7 16.5 0.00 0.00 0.00 40 1006.4
20260504130417 50 150 9.6 18.2 0.00 0.00 0.00 40 1006.5
20260504130247 50 178 9.6 16.5 0.00 0.00 0.00 40 1006.4
20260504130142 50 172 8.7 16.5 0.00 0.00 0.00 39 1006.4
20260504130115 50 166 8.7 16.5 0.00 0.00 0.00 39 1006.5
20260504120238 49 175 7.0 15.6 0.00 0.00 0.00 23 1006.5
20260504120126 49 177 7.0 15.6 0.00 0.00 0.00 22 1006.5
20260504110659 47 162 7.0 13.0 0.00 0.00 0.00 1 1006.9
20260504110622 47 144 7.0 13.0 0.00 0.00 0.00 1 1006.8
20260504110505 47 157 7.0 13.0 0.00 0.00 0.00 1 1006.8
20260504110405 47 164 6.1 13.0 0.00 0.00 0.00 1 1006.8
20260504110217 47 162 6.1 13.0 0.00 0.00 0.00 1 1006.8
20260504110134 47 179 6.1 13.0 0.00 0.00 0.00 1 1006.8
20260504100534 46 180 4.3 8.7 0.00 0.00 0.00 1 1006.9
20260504100456 46 194 5.2 8.7 0.00 0.00 0.00 1 1006.9
20260504100418 46 186 5.2 8.7 0.00 0.00 0.00 1 1006.9
20260504100311 46 181 5.2 8.7 0.00 0.00 0.00 1 1007.0
20260504100120 46 116 5.2 8.7 0.00 0.00 0.00 1 1007.0
20260504090116 45 194 4.3 8.7 0.00 0.00 0.00 1 1007.3
20260504081953 45 193 4.3 8.7 0.00 0.00 0.00 1 1007.7
20260504081834 45 186 4.3 8.7 0.00 0.00 0.00 1 1007.6
20260504081729 45 209 3.5 8.7 0.00 0.00 0.00 1 1007.6
20260504081626 45 192 4.3 8.7 0.00 0.00 0.00 1 1007.6
20260504081526 45 170 3.5 9.6 0.00 0.00 0.00 1 1007.6
20260504081453 45 173 3.5 9.6 0.00 0.00 0.00 1 1007.6
20260504081335 45 203 3.5 9.6 0.00 0.00 0.00 1 1007.5
20260504081259 45 187 4.3 9.6 0.00 0.00 0.00 2 1007.5
20260504081225 45 204 5.2 11.3 0.00 0.00 0.00 2 1007.6
20260504081034 45 154 4.3 11.3 0.00 0.00 0.00 4 1007.7
20260504080928 45 207 4.3 11.3 0.00 0.00 0.00 4 1007.7
20260504080852 45 165 5.2 11.3 0.00 0.00 0.00 5 1007.7
20260504080757 45 187 5.2 11.3 0.00 0.00 0.00 5 1007.7
20260504080718 45 234 6.1 11.3 0.00 0.00 0.00 5 1007.7
20260504080525 45 164 7.0 11.3 0.00 0.00 0.00 7 1007.6
20260504080427 45 183 7.0 11.3 0.00 0.00 0.00 7 1007.6
20260504080323 45 175 7.0 11.3 0.00 0.00 0.00 7 1007.5
20260504080254 45 194 6.1 11.3 0.00 0.00 0.00 7 1007.6
20260504080136 45 186 6.1 11.3 0.00 0.00 0.00 8 1007.5
20260504070331 45 171 3.5 7.0 0.00 0.00 0.00 39 1007.7
20260504070254 45 187 2.6 7.0 0.00 0.00 0.00 39 1007.7
20260504070214 45 200 1.7 6.1 0.00 0.00 0.00 39 1007.6
20260504070117 45 140 1.7 3.5 0.00 0.00 0.00 38 1007.6
20260504060132 45 190 3.5 7.8 0.00 0.00 0.00 49 1008.1
20260504050731 45 165 3.5 8.7 0.00 0.00 0.00 51 1008.1
20260504050540 45 162 3.5 8.7 0.00 0.00 0.00 51 1008.0
20260504050438 45 171 4.3 8.7 0.00 0.00 0.00 51 1008.0
20260504050334 45 155 3.5 8.7 0.00 0.00 0.00 51 1008.0
20260504050255 45 160 3.5 8.7 0.00 0.00 0.00 51 1008.0
20260504050126 45 174 5.2 8.7 0.00 0.00 0.00 51 1008.0
20260504050019 45 163 4.3 9.6 0.00 0.00 0.00 51 1008.0
20260504045829 45 209 4.3 7.8 0.00 0.00 0.00 51 1008.0
20260504045743 45 182 3.5 7.8 0.00 0.00 0.00 51 1008.0
20260504045614 45 194 2.6 7.0 0.00 0.00 0.00 51 1008.1
20260504045535 45 157 2.6 7.0 0.00 0.00 0.00 51 1008.1
20260504045407 45 218 4.3 7.0 0.00 0.00 0.00 51 1008.1
20260504045223 45 192 5.2 7.0 0.00 0.00 0.00 51 1008.1
20260504045126 45 178 3.5 7.0 0.00 0.00 0.00 50 1008.1
20260504045026 45 190 3.5 6.1 0.00 0.00 0.00 50 1008.1
20260504044831 44 262 1.7 5.2 0.00 0.00 0.00 51 1008.2
20260504044732 44 229 1.7 5.2 0.00 0.00 0.00 50 1008.2
20260504044635 45 201 1.7 5.2 0.00 0.00 0.00 50 1008.2
20260504044535 45 192 1.7 5.2 0.00 0.00 0.00 50 1008.2
20260504044417 44 207 1.7 5.2 0.00 0.00 0.00 50 1008.2
20260504044333 44 205 2.6 6.1 0.00 0.00 0.00 50 1008.1
20260504044207 44 212 2.6 6.1 0.00 0.00 0.00 50 1008.1
20260504044107 44 162 1.7 7.0 0.00 0.00 0.00 50 1008.0
20260504043931 44 214 2.6 7.0 0.00 0.00 0.00 50 1008.2
20260504043852 44 199 3.5 7.0 0.00 0.00 0.00 50 1008.1
20260504043633 44 180 3.5 7.0 0.00 0.00 0.00 49 1008.0
20260504043557 44 164 3.5 7.0 0.00 0.00 0.00 49 1008.0
20260504043441 44 199 2.6 7.0 0.00 0.00 0.00 49 1008.1
20260504043403 44 150 3.5 7.0 0.00 0.00 0.00 49 1008.1
20260504043336 44 211 3.5 7.0 0.00 0.00 0.00 49 1008.1
20260504043143 44 196 2.6 6.1 0.00 0.00 0.00 49 1008.1
20260504043044 44 173 2.6 6.1 0.00 0.00 0.00 48 1008.1
20260504042938 44 180 3.5 6.1 0.00 0.00 0.00 48 1008.2
20260504042901 44 212 3.5 6.1 0.00 0.00 0.00 48 1008.2
20260504042805 44 183 3.5 6.1 0.00 0.00 0.00 48 1008.2
20260504042727 44 166 3.5 6.1 0.00 0.00 0.00 48 1008.2
20260504042529 43 171 4.3 6.1 0.00 0.00 0.00 47 1008.2
20260504042432 43 157 3.5 6.1 0.00 0.00 0.00 46 1008.2
20260504042335 43 196 3.5 6.1 0.00 0.00 0.00 46 1008.3
20260504042242 43 171 2.6 4.3 0.00 0.00 0.00 45 1008.3
20260504042155 43 208 2.6 4.3 0.00 0.00 0.00 45 1008.2
20260504042025 43 184 2.6 4.3 0.00 0.00 0.00 44 1008.2
20260504041924 43 180 2.6 5.2 0.00 0.00 0.00 44 1008.2
20260504041755 43 164 2.6 7.0 0.00 0.00 0.00 42 1008.2
20260504041629 42 188 2.6 7.0 0.00 0.00 0.00 40 1008.2
20260504041512 42 164 2.6 7.0 0.00 0.00 0.00 39 1008.3
20260504041444 42 200 2.6 7.0 0.00 0.00 0.00 37 1008.3
20260504041407 42 179 2.6 7.0 0.00 0.00 0.00 37 1008.3
20260504041311 42 184 2.6 7.0 0.00 0.00 0.00 37 1008.3
20260504041233 42 210 2.6 7.0 0.00 0.00 0.00 37 1008.3
20260504041108 41 215 3.5 7.0 0.00 0.00 0.00 32 1008.3
20260504040923 41 211 2.6 7.0 0.00 0.00 0.00 25 1008.3
20260504040835 41 209 2.6 5.2 0.00 0.00 0.00 22 1008.2
20260504040754 40 199 3.5 5.2 0.00 0.00 0.00 18 1008.2
20260504040713 40 198 3.5 6.1 0.00 0.00 0.00 11 1008.3
20260504040616 40 223 4.3 6.1 0.00 0.00 0.00 4 1008.4
20260504040518 39 173 3.5 6.1 0.00 0.00 0.00 1 1008.4
20260504040440 39 169 2.6 6.1 0.00 0.00 0.00 1 1008.4
20260504040309 39 197 1.7 6.1 0.00 0.00 0.00 1 1008.4
20260504040224 39 173 1.7 6.1 0.00 0.00 0.00 1 1008.4
20260504040037 38 201 2.6 6.1 0.00 0.00 0.00 1 1008.4
20260504035951 37 188 2.6 6.1 0.00 0.00 0.00 1 1008.3
20260504035741 36 185 2.6 4.3 0.00 0.00 0.00 1 1008.3
20260504035636 36 165 1.7 3.5 0.00 0.00 0.00 1 1008.3
20260504035505 36 204 1.7 2.6 0.00 0.00 0.00 1 1008.3
20260504035427 36 194 1.7 2.6 0.00 0.00 0.00 1 1008.3
20260504035230 35 194 0.9 2.6 0.00 0.00 0.00 1 1008.3
20260504035152 35 194 0.0 0.9 0.00 0.00 0.00 1 1008.3
20260504035056 35 194 0.0 0.9 0.00 0.00 0.00 1 1008.3
20260504035017 35 194 0.0 0.9 0.00 0.00 0.00 1 1008.3
20260504034831 35 194 0.0 0.9 0.00 0.00 0.00 1 1008.4
20260504034724 35 194 0.0 0.9 0.00 0.00 0.00 1 1008.4
20260504034648 35 194 0.0 0.9 0.00 0.00 0.00 1 1008.4
20260504034551 35 194 0.0 0.9 0.00 0.00 0.00 1 1008.4
20260504034514 35 194 0.0 0.9 0.00 0.00 0.00 1 1008.4
20260504034330 35 194 0.0 0.0 0.00 0.00 0.00 1 1008.4
20260504034231 35 194 0.0 0.0 0.00 0.00 0.00 1 1008.3
20260504034134 35 194 0.0 0.0 0.00 0.00 0.00 1 1008.4
20260504034057 35 194 0.0 0.0 0.00 0.00 0.00 1 1008.4
20260504033957 35 194 0.0 0.0 0.00 0.00 0.00 1 1008.4
20260504033906 35 194 0.0 0.0 0.00 0.00 0.00 1 1008.3
20260504033828 35 194 0.0 0.0 0.00 0.00 0.00 1 1008.3
20260504033631 34 194 0.0 0.0 0.00 0.00 0.00 1 1008.3
20260504033534 34 194 0.0 0.0 0.00 0.00 0.00 1 1008.4
20260504033437 34 194 0.0 0.0 0.00 0.00 0.00 1 1008.3
20260504033400 34 194 0.0 0.0 0.00 0.00 0.00 1 1008.3
20260504033322 34 194 0.0 0.0 0.00 0.00 0.00 1 1008.4
20260504033124 34 194 0.0 0.0 0.00 0.00 0.00 1 1008.3
20260504033047 34 194 0.0 0.0 0.00 0.00 0.00 1 1008.3
20260504032935 34 194 0.0 0.0 0.00 0.00 0.00 1 1008.3
20260504032906 34 194 0.0 0.0 0.00 0.00 0.00 1 1008.2
20260504032737 34 194 0.0 0.0 0.00 0.00 0.00 1 1008.2
20260504032630 34 194 0.0 0.0 0.00 0.00 0.00 1 1008.2
20260504032500 34 194 0.0 0.0 0.00 0.00 0.00 1 1008.4
20260504032401 34 194 0.0 0.0 0.00 0.00 0.00 1 1008.4
20260504032223 34 194 0.0 0.0 0.00 0.00 0.00 1 1008.3
20260504032144 34 194 0.0 0.0 0.00 0.00 0.00 1 1008.3
20260504032026 34 194 0.0 0.0 0.00 0.00 0.00 1 1008.3
20260504031948 34 194 0.0 0.0 0.00 0.00 0.00 1 1008.3
20260504031729 34 194 0.0 0.0 0.00 0.00 0.00 1 1008.3
20260504031634 34 194 0.0 0.0 0.00 0.00 0.00 1 1008.3
20260504031537 34 194 0.0 0.0 0.00 0.00 0.00 1 1008.3
20260504031500 34 194 0.0 0.0 0.00 0.00 0.00 1 1008.3
20260504031421 34 194 0.0 0.0 0.00 0.00 0.00 1 1008.3
20260504031224 34 194 0.0 0.0 0.00 0.00 0.00 1 1008.3
20260504031146 34 194 0.0 0.0 0.00 0.00 0.00 1 1008.3
20260504031028 34 194 0.0 0.0 0.00 0.00 0.00 1 1008.3
20260504030951 34 194 0.0 0.0 0.00 0.00 0.00 1 1008.3
20260504030914 34 194 0.0 0.0 0.00 0.00 0.00 1 1008.3
20260504030756 34 194 0.0 0.0 0.00 0.00 0.00 1 1008.3
20260504030721 34 194 0.0 0.0 0.00 0.00 0.00 1 1008.3
20260504030526 34 194 0.0 0.0 0.00 0.00 0.00 1 1008.3
20260504030446 34 194 0.0 0.0 0.00 0.00 0.00 1 1008.3
20260504030326 34 194 0.0 0.0 0.00 0.00 0.00 1 1008.3
20260504030218 34 194 0.0 0.0 0.00 0.00 0.00 1 1008.3
20260504030028 34 194 0.0 0.0 0.00 0.00 0.00 1 1008.4
20260504025945 34 194 0.0 0.0 0.00 0.00 0.00 1 1008.4
20260504025816 34 194 0.0 0.0 0.00 0.00 0.00 1 1008.4
20260504025715 34 194 0.0 0.0 0.00 0.00 0.00 1 1008.4
20260504025536 34 194 0.0 0.0 0.00 0.00 0.00 1 1008.4
20260504025503 34 194 0.0 0.0 0.00 0.00 0.00 1 1008.4
20260504025325 34 194 0.0 0.0 0.00 0.00 0.00 1 1008.3
20260504025247 34 194 0.0 0.0 0.00 0.00 0.00 1 1008.3
20260504025207 34 194 0.0 0.0 0.00 0.00 0.00 1 1008.3
20260504025111 34 194 0.0 0.0 0.00 0.00 0.00 1 1008.3
20260504025034 34 194 0.0 0.0 0.00 0.00 0.00 1 1008.3
20260504024837 34 194 0.0 0.0 0.00 0.00 0.00 1 1008.4
20260504024738 34 194 0.0 0.0 0.00 0.00 0.00 1 1008.3
20260504024641 34 194 0.0 0.0 0.00 0.00 0.00 1 1008.3
20260504024550 34 194 0.0 0.0 0.00 0.00 0.00 1 1008.3
20260504024504 34 194 0.0 0.0 0.00 0.00 0.00 1 1008.4
20260504024312 34 194 0.0 0.0 0.00 0.00 0.00 1 1008.4
20260504024234 34 194 0.0 0.0 0.00 0.00 0.00 1 1008.4
20260504024037 34 194 0.0 0.0 0.00 0.00 0.00 1 1008.4
20260504023959 34 194 0.0 0.0 0.00 0.00 0.00 1 1008.4
20260504023823 34 194 0.0 0.0 0.00 0.00 0.00 1 1008.5
20260504023717 34 194 0.0 0.0 0.00 0.00 0.00 1 1008.4
20260504023527 34 194 0.0 0.0 0.00 0.00 0.00 1 1008.5
20260504023445 34 194 0.0 0.0 0.00 0.00 0.00 1 1008.5
20260504023315 34 194 0.0 0.0 0.00 0.00 0.00 1 1008.5
20260504023236 34 194 0.0 0.0 0.00 0.00 0.00 1 1008.5
20260504023058 34 194 0.0 0.0 0.00 0.00 0.00 1 1008.5
20260504023019 34 194 0.0 0.0 0.00 0.00 0.00 1 1008.5
20260504022823 34 194 0.0 0.0 0.00 0.00 0.00 1 1008.5
20260504022725 34 194 0.0 0.0 0.00 0.00 0.00 1 1008.5
20260504022629 34 194 0.0 0.0 0.00 0.00 0.00 1 1008.5
20260504022530 34 194 0.0 0.0 0.00 0.00 0.00 1 1008.6
20260504022454 34 194 0.0 0.0 0.00 0.00 0.00 1 1008.6
20260504022359 34 194 0.0 0.0 0.00 0.00 0.00 1 1008.5
20260504022321 34 194 0.0 0.0 0.00 0.00 0.00 1 1008.6
20260504022124 35 194 0.0 0.0 0.00 0.00 0.00 1 1008.6
20260504022026 35 194 0.0 0.0 0.00 0.00 0.00 1 1008.6
20260504021941 35 194 0.0 0.0 0.00 0.00 0.00 1 1008.6
20260504021842 35 194 0.0 0.0 0.00 0.00 0.00 1 1008.5
20260504021712 35 194 0.0 0.0 0.00 0.00 0.00 1 1008.6
20260504021607 35 194 0.0 0.0 0.00 0.00 0.00 1 1008.6
20260504021437 35 194 0.0 0.0 0.00 0.00 0.00 1 1008.6
20260504021338 35 194 0.0 0.0 0.00 0.00 0.00 1 1008.6
20260504021219 35 194 0.0 1.7 0.00 0.00 0.00 1 1008.6
20260504021138 35 194 0.0 1.7 0.00 0.00 0.00 1 1008.6
20260504021009 35 194 0.0 1.7 0.00 0.00 0.00 1 1008.6
20260504020930 35 194 0.0 1.7 0.00 0.00 0.00 1 1008.6
20260504020732 35 194 0.0 1.7 0.00 0.00 0.00 1 1008.6
20260504020656 35 194 0.0 1.7 0.00 0.00 0.00 1 1008.6
20260504020559 35 194 0.0 1.7 0.00 0.00 0.00 1 1008.6
20260504020500 35 194 0.0 1.7 0.00 0.00 0.00 1 1008.6
20260504020421 35 194 0.0 0.9 0.00 0.00 0.00 1 1008.6
20260504020223 35 194 0.0 0.0 0.00 0.00 0.00 1 1008.6
20260504020145 35 194 0.0 0.0 0.00 0.00 0.00 1 1008.6
20260504020028 35 194 0.0 0.0 0.00 0.00 0.00 1 1008.6
20260504015931 35 194 0.0 0.0 0.00 0.00 0.00 1 1008.6
20260504015855 35 194 0.0 0.0 0.00 0.00 0.00 1 1008.6
20260504015759 35 194 0.0 0.0 0.00 0.00 0.00 1 1008.6
20260504015720 35 194 0.0 0.0 0.00 0.00 0.00 1 1008.6
20260504015523 35 194 0.0 0.0 0.00 0.00 0.00 1 1008.6
20260504015425 35 194 0.0 0.0 0.00 0.00 0.00 1 1008.6
20260504015328 35 194 0.0 0.0 0.00 0.00 0.00 1 1008.6
20260504015250 36 194 0.0 0.0 0.00 0.00 0.00 1 1008.6
20260504015211 36 194 0.0 0.0 0.00 0.00 0.00 1 1008.6
20260504015114 36 194 0.0 0.0 0.00 0.00 0.00 1 1008.8
20260504015040 36 194 0.0 0.0 0.00 0.00 0.00 1 1008.7
20260504014911 36 194 0.0 0.9 0.00 0.00 0.00 1 1008.7
20260504014824 36 194 0.0 0.9 0.00 0.00 0.00 1 1008.8
20260504014635 36 194 0.0 0.9 0.00 0.00 0.00 1 1008.7
20260504014552 36 194 0.0 0.9 0.00 0.00 0.00 1 1008.8
20260504014414 36 194 0.0 0.9 0.00 0.00 0.00 1 1008.8
20260504014350 36 194 0.0 0.9 0.00 0.00 0.00 1 1008.8
20260504014311 36 194 0.0 0.9 0.00 0.00 0.00 1 1008.7
20260504014155 36 194 0.0 0.9 0.00 0.00 0.00 1 1008.8
20260504014026 36 194 0.0 0.9 0.00 0.00 0.00 1 1008.7
20260504013859 36 194 0.0 0.9 0.00 0.00 0.00 1 1008.7
20260504013802 36 194 0.0 0.9 0.00 0.00 0.00 1 1008.7
20260504013717 36 194 0.0 0.0 0.00 0.00 0.00 1 1008.7
20260504013546 36 194 0.0 0.9 0.00 0.00 0.00 1 1008.7
20260504013448 36 194 0.0 0.9 0.00 0.00 0.00 1 1008.7
20260504013323 36 194 0.0 0.9 0.00 0.00 0.00 1 1008.7
20260504013226 36 194 0.0 0.9 0.00 0.00 0.00 1 1008.7
20260504013146 36 194 0.0 0.9 0.00 0.00 0.00 1 1008.7
20260504013017 37 194 0.0 0.9 0.00 0.00 0.00 1 1008.7
20260504012932 37 194 0.0 0.9 0.00 0.00 0.00 1 1008.6
20260504012751 37 194 0.0 0.9 0.00 0.00 0.00 1 1008.6
20260504012603 37 194 0.0 0.0 0.00 0.00 0.00 1 1008.6
20260504012505 37 194 0.0 0.0 0.00 0.00 0.00 1 1008.6
20260504012328 37 194 0.0 0.0 0.00 0.00 0.00 1 1008.6
20260504012251 37 194 0.0 0.0 0.00 0.00 0.00 1 1008.6
20260504012207 37 194 0.0 0.0 0.00 0.00 0.00 1 1008.5
20260504012017 37 194 0.0 0.0 0.00 0.00 0.00 1 1008.6
20260504011919 37 194 0.0 0.0 0.00 0.00 0.00 1 1008.5
20260504011821 37 194 0.0 0.0 0.00 0.00 0.00 1 1008.5
20260504011743 37 194 0.0 0.0 0.00 0.00 0.00 1 1008.5
20260504011612 38 194 0.0 0.0 0.00 0.00 0.00 1 1008.5
20260504011527 38 194 0.0 0.0 0.00 0.00 0.00 1 1008.5
20260504011357 38 194 0.0 0.9 0.00 0.00 0.00 1 1008.4
20260504011301 38 194 0.0 0.9 0.00 0.00 0.00 1 1008.4
20260504011123 38 194 0.0 0.9 0.00 0.00 0.00 1 1008.5
20260504011043 38 194 0.0 0.9 0.00 0.00 0.00 1 1008.5
20260504010916 38 194 0.0 0.9 0.00 0.00 0.00 1 1008.4
20260504010831 38 194 0.0 0.9 0.00 0.00 0.00 1 1008.4
20260504010642 38 194 0.0 0.9 0.00 0.00 0.00 1 1008.4
20260504010526 38 194 0.0 0.9 0.00 0.00 0.00 1 1008.3
20260504010453 38 194 0.0 0.9 0.00 0.00 0.00 1 1008.3
20260504010336 38 194 0.0 0.9 0.00 0.00 0.00 2 1008.3
20260504010302 38 194 0.0 0.9 0.00 0.00 0.00 3 1008.3
20260504010045 38 194 0.0 0.0 0.00 0.00 0.00 4 1008.3
20260504010005 38 194 0.0 0.0 0.00 0.00 0.00 5 1008.3
20260504005910 38 194 0.0 0.0 0.00 0.00 0.00 6 1008.3
20260504005832 38 194 0.0 0.0 0.00 0.00 0.00 6 1008.3
20260504005636 39 194 0.0 0.0 0.00 0.00 0.00 9 1008.2
20260504005538 39 194 0.0 0.9 0.00 0.00 0.00 9 1008.2
20260504005441 39 194 0.0 0.9 0.00 0.00 0.00 10 1008.2
20260504005344 39 194 0.0 0.9 0.00 0.00 0.00 10 1008.2
20260504005308 39 194 0.0 0.9 0.00 0.00 0.00 11 1008.2
20260504005210 39 194 0.0 0.9 0.00 0.00 0.00 11 1008.1
20260504005133 39 194 0.0 0.9 0.00 0.00 0.00 12 1008.1
20260504004937 39 194 0.0 0.9 0.00 0.00 0.00 13 1008.2
20260504004838 39 194 0.0 0.9 0.00 0.00 0.00 13 1008.1
20260504004723 39 194 0.0 0.9 0.00 0.00 0.00 14 1008.1
20260504004654 39 194 0.0 0.0 0.00 0.00 0.00 15 1008.1
20260504004437 40 194 0.0 0.0 0.00 0.00 0.00 18 1008.2
20260504004358 40 194 0.0 0.0 0.00 0.00 0.00 18 1008.2
20260504004234 40 194 0.0 0.0 0.00 0.00 0.00 18 1008.1
20260504004156 40 194 0.0 0.0 0.00 0.00 0.00 18 1008.1
20260504004039 40 194 0.0 0.0 0.00 0.00 0.00 19 1008.2
20260504003958 40 194 0.0 0.0 0.00 0.00 0.00 19 1008.2
20260504003839 40 194 0.0 0.0 0.00 0.00 0.00 21 1008.1
20260504003758 40 194 0.0 0.0 0.00 0.00 0.00 22 1008.1
20260504003700 40 194 0.0 0.0 0.00 0.00 0.00 23 1008.2
20260504003618 40 194 0.0 0.0 0.00 0.00 0.00 23 1008.1
20260504003446 41 194 0.0 0.0 0.00 0.00 0.00 24 1008.1
20260504003322 41 194 0.0 0.0 0.00 0.00 0.00 25 1008.1
20260504003234 41 194 0.0 0.0 0.00 0.00 0.00 25 1008.1
20260504003133 41 194 0.0 0.0 0.00 0.00 0.00 26 1008.1
20260504003034 41 194 0.0 0.0 0.00 0.00 0.00 26 1008.1
20260504002952 41 194 0.0 0.0 0.00 0.00 0.00 26 1008.1
20260504002818 41 194 0.0 0.0 0.00 0.00 0.00 27 1008.1
20260504002729 41 194 0.0 0.0 0.00 0.00 0.00 28 1008.1
20260504002559 42 194 0.0 0.0 0.00 0.00 0.00 29 1008.1
20260504002443 42 194 0.0 0.0 0.00 0.00 0.00 30 1008.1
20260504002339 42 194 0.0 0.0 0.00 0.00 0.00 30 1008.1
20260504002304 42 194 0.0 0.0 0.00 0.00 0.00 31 1008.1
20260504002206 42 194 0.0 0.0 0.00 0.00 0.00 32 1008.1
20260504002127 42 194 0.0 0.0 0.00 0.00 0.00 32 1008.1
20260504001930 42 194 0.0 0.0 0.00 0.00 0.00 33 1008.1
20260504001842 42 194 0.0 0.0 0.00 0.00 0.00 34 1008.0
20260504001723 43 194 0.0 0.0 0.00 0.00 0.00 35 1008.1
20260504001646 43 194 0.0 0.0 0.00 0.00 0.00 35 1008.1
20260504001602 43 194 0.0 0.0 0.00 0.00 0.00 36 1008.1
20260504001411 43 194 0.0 0.0 0.00 0.00 0.00 36 1008.1
20260504001315 43 194 0.0 0.0 0.00 0.00 0.00 36 1008.1
20260504001139 43 194 0.0 0.0 0.00 0.00 0.00 37 1008.1
20260504001041 43 194 0.0 0.0 0.00 0.00 0.00 37 1008.1
20260504000924 43 194 0.0 0.0 0.00 0.00 0.00 37 1008.1
20260504000845 44 194 0.0 0.0 0.00 0.00 0.00 37 1008.1
20260504000709 44 194 0.0 0.0 0.00 0.00 0.00 37 1008.0
20260504000632 44 194 0.0 0.0 0.00 0.00 0.00 37 1008.1
20260504000416 44 194 0.0 0.0 0.00 0.00 0.00 37 1008.0
20260504000330 44 194 0.0 0.0 0.00 0.00 0.00 36 1008.0
20260504000234 44 194 0.0 0.0 0.00 0.00 0.00 36 1008.0
20260504000153 44 194 0.0 0.9 0.00 0.00 0.00 36 1008.0
20260504000025 44 194 0.0 0.9 0.00 0.00 0.00 37 1008.0
20260503235918 45 194 0.0 0.9 0.00 0.02 0.00 36 1007.9
20260503235728 45 194 0.0 1.7 0.00 0.02 0.00 37 1008.0
20260503235640 45 194 0.0 1.7 0.00 0.02 0.00 37 1008.0
20260503235544 45 194 0.0 1.7 0.00 0.02 0.00 37 1008.0
20260503235438 45 194 0.0 1.7 0.00 0.02 0.00 38 1008.0
20260503235337 45 194 0.0 1.7 0.00 0.02 0.00 39 1008.0
20260503235245 45 194 0.0 1.7 0.00 0.02 0.00 41 1007.9
20260503235125 45 194 0.0 1.7 0.00 0.02 0.00 41 1007.9
20260503235027 46 194 0.0 1.7 0.00 0.02 0.00 41 1007.9
20260503234949 46 194 0.0 1.7 0.00 0.02 0.00 41 1007.9
20260503234821 46 194 0.0 1.7 0.00 0.02 0.00 41 1007.9
20260503234736 46 194 0.0 1.7 0.00 0.02 0.00 41 1007.9
20260503234527 46 194 0.9 1.7 0.00 0.02 0.00 43 1007.9
20260503234421 46 194 0.9 1.7 0.00 0.02 0.00 43 1007.9
20260503234345 46 194 0.9 1.7 0.00 0.02 0.00 43 1007.9
20260503234244 46 194 0.9 1.7 0.00 0.02 0.00 43 1007.9
20260503234206 47 194 0.9 1.7 0.00 0.02 0.00 44 1007.9
20260503234106 47 194 0.9 1.7 0.00 0.02 0.00 44 1007.9
20260503234011 47 194 0.9 1.7 0.00 0.02 0.00 43 1007.8
20260503233932 47 194 0.9 1.7 0.00 0.02 0.00 43 1007.8
20260503233735 47 194 0.0 0.0 0.00 0.02 0.00 40 1007.9
20260503233636 47 194 0.0 0.0 0.00 0.02 0.00 38 1007.8
20260503233530 47 194 0.0 0.0 0.00 0.02 0.00 40 1007.9
20260503233452 47 194 0.0 0.0 0.00 0.02 0.00 40 1007.9
20260503233407 47 194 0.0 0.0 0.00 0.02 0.00 42 1007.9
20260503233331 47 194 0.0 0.0 0.00 0.02 0.00 44 1007.8
20260503233231 48 194 0.0 0.0 0.00 0.02 0.00 47 1007.8
20260503233126 48 194 0.0 0.0 0.00 0.02 0.00 47 1007.8
20260503232938 48 194 0.0 0.0 0.00 0.02 0.00 49 1007.8
20260503232852 48 194 0.0 0.0 0.00 0.02 0.00 49 1007.8
20260503232722 48 194 0.0 0.0 0.00 0.02 0.00 50 1007.8
20260503232643 48 194 0.0 0.0 0.00 0.02 0.00 51 1007.8
20260503232507 48 194 0.0 0.0 0.00 0.02 0.00 52 1007.8
20260503232429 48 194 0.0 0.0 0.00 0.02 0.00 52 1007.8
20260503232239 48 194 0.0 0.0 0.00 0.02 0.00 52 1007.7
20260503232135 48 194 0.0 0.0 0.00 0.02 0.00 52 1007.7
20260503232059 48 194 0.0 0.0 0.00 0.02 0.00 52 1007.7
20260503232004 49 194 0.0 0.0 0.00 0.02 0.00 52 1007.7
20260503231925 49 194 0.0 0.0 0.00 0.02 0.00 52 1007.7
20260503231754 49 194 0.0 0.0 0.00 0.02 0.00 52 1007.7
20260503231647 49 194 0.0 0.0 0.00 0.02 0.00 52 1007.7
20260503231517 49 194 0.0 0.0 0.00 0.02 0.00 52 1007.6
20260503231439 49 194 0.0 0.0 0.00 0.02 0.00 52 1007.7
20260503231241 49 194 0.0 0.0 0.00 0.02 0.00 53 1007.7
20260503231141 49 194 0.0 0.0 0.00 0.02 0.00 53 1007.7
20260503231026 49 194 0.0 0.0 0.00 0.02 0.00 53 1007.7
20260503230951 49 194 0.0 0.0 0.00 0.02 0.00 53 1007.7
20260503230822 49 194 0.0 0.0 0.00 0.02 0.00 53 1007.7
20260503230714 49 194 0.0 0.0 0.00 0.02 0.00 53 1007.7
20260503230526 49 194 0.0 0.0 0.00 0.02 0.00 53 1007.7
20260503230439 49 194 0.0 0.0 0.00 0.02 0.00 51 1007.7
20260503230308 49 194 0.0 1.7 0.00 0.02 0.00 49 1007.7
20260503230208 49 194 0.0 1.7 0.00 0.02 0.00 48 1007.7
20260503230052 49 194 0.0 1.7 0.00 0.02 0.00 50 1007.7
20260503225931 49 194 0.0 1.7 0.00 0.03 0.00 49 1007.7
20260503225834 49 194 0.0 1.7 0.00 0.03 0.00 48 1007.7
20260503225757 49 194 0.0 1.7 0.00 0.03 0.00 49 1007.7
20260503225724 49 194 0.0 1.7 0.00 0.03 0.00 49 1007.7
20260503225527 49 194 0.9 1.7 0.00 0.03 0.00 49 1007.7
20260503225450 49 194 0.9 1.7 0.00 0.03 0.00 50 1007.7
20260503225336 49 194 0.0 0.9 0.00 0.03 0.00 50 1007.7
20260503225257 49 194 0.0 0.9 0.00 0.03 0.00 47 1007.7
20260503225108 49 194 0.0 0.0 0.00 0.03 0.00 46 1007.7
20260503224922 49 194 0.0 0.0 0.00 0.03 0.00 47 1007.7
20260503224825 49 194 0.0 0.9 0.00 0.03 0.00 45 1007.7
20260503224747 49 194 0.0 0.9 0.00 0.03 0.00 45 1007.7
20260503224713 49 194 0.0 0.9 0.00 0.03 0.00 46 1007.7
20260503224617 49 194 0.0 0.9 0.00 0.03 0.00 48 1007.8
20260503224517 49 194 0.0 0.9 0.00 0.03 0.00 48 1007.8
20260503224347 49 194 0.0 1.7 0.00 0.03 0.00 48 1007.8
20260503224240 49 194 0.0 1.7 0.00 0.03 0.00 48 1007.8
20260503224048 49 194 0.0 1.7 0.00 0.03 0.00 48 1007.8
20260503223951 49 194 0.0 1.7 0.00 0.03 0.00 48 1007.8
20260503223908 49 194 0.0 1.7 0.00 0.03 0.00 47 1007.8
20260503223646 49 194 0.9 2.6 0.00 0.03 0.00 47 1007.8
20260503223547 49 194 0.9 2.6 0.00 0.03 0.00 47 1007.8
20260503223509 49 194 0.0 2.6 0.00 0.03 0.00 46 1007.8
20260503223330 49 194 0.9 3.5 0.00 0.03 0.00 46 1007.8
20260503223225 49 194 0.9 3.5 0.00 0.03 0.00 46 1007.8
20260503223150 49 194 0.9 3.5 0.00 0.03 0.00 46 1007.8
20260503223121 49 194 0.9 3.5 0.00 0.03 0.00 47 1007.8
20260503223037 49 194 0.9 3.5 0.00 0.03 0.00 47 1007.8
20260503222907 49 194 1.7 3.5 0.00 0.03 0.00 45 1007.7
20260503222818 49 194 1.7 3.5 0.00 0.03 0.00 45 1007.7
20260503222622 49 184 1.7 3.5 0.00 0.03 0.00 46 1007.7
20260503222545 49 203 1.7 3.5 0.00 0.03 0.00 46 1007.7
20260503222450 49 223 0.9 2.6 0.00 0.03 0.00 46 1007.7
20260503222347 49 261 0.9 2.6 0.00 0.03 0.00 47 1007.7
20260503222218 50 261 0.9 2.6 0.00 0.03 0.00 46 1007.7
20260503222122 50 261 0.9 2.6 0.00 0.03 0.00 46 1007.7
20260503222006 50 261 0.0 1.7 0.00 0.03 0.00 46 1007.8
20260503221928 50 344 0.0 0.9 0.00 0.03 0.00 46 1007.7
20260503221732 50 344 0.0 1.7 0.00 0.03 0.00 47 1007.7
20260503221635 50 344 0.0 1.7 0.00 0.03 0.00 47 1007.8
20260503221539 50 344 0.0 1.7 0.00 0.03 0.00 47 1007.8
20260503221501 50 344 0.0 1.7 0.00 0.03 0.00 49 1007.8
20260503221330 50 344 0.0 2.6 0.00 0.03 0.00 46 1007.8
20260503221225 50 344 0.0 2.6 0.00 0.03 0.00 46 1007.7
20260503221054 50 344 0.9 3.5 0.00 0.03 0.00 44 1007.7
20260503220931 50 344 0.9 3.5 0.00 0.03 0.00 44 1007.7
20260503220859 50 344 0.9 3.5 0.00 0.03 0.00 46 1007.7
20260503220801 50 29 0.9 3.5 0.00 0.03 0.00 47 1007.7
20260503220644 50 29 0.9 3.5 0.00 0.03 0.00 47 1007.7
20260503220537 50 29 1.7 3.5 0.00 0.03 0.00 46 1007.6
20260503220500 50 29 1.7 3.5 0.00 0.03 0.00 46 1007.6
20260503220405 50 360 2.6 3.5 0.00 0.03 0.00 47 1007.6
20260503220326 50 338 2.6 3.5 0.00 0.03 0.00 47 1007.6
20260503220128 50 348 1.7 3.5 0.00 0.03 0.00 48 1007.7
20260503220029 50 298 0.9 2.6 0.00 0.03 0.00 47 1007.6